Time_in_sec,gx,gy,gz
1312471250.74340487,-0.03498919,-0.00358269,-0.99938127
1312471250.79645085,-0.03503392,-0.00343537,-0.99938022
1312471250.84388995,-0.03485821,-0.00335568,-0.99938663
1312471250.89597845,-0.03496317,-0.00323142,-0.99938338
1312471250.94399786,-0.03505290,-0.00318157,-0.99938039
1312471250.99633598,-0.03521027,-0.00320147,-0.99937480
1312471251.04330802,-0.03522206,-0.00307331,-0.99937479
1312471251.09631801,-0.03525944,-0.00305253,-0.99937353
1312471251.14329290,-0.03538514,-0.00312322,-0.99936887
1312471251.19644451,-0.03532058,-0.00351767,-0.99936984
1312471251.24329948,-0.03556918,-0.00358979,-0.99936077
1312471251.29643536,-0.03570660,-0.00373805,-0.99935532
1312471251.34329200,-0.03532946,-0.00336794,-0.99937004
1312471251.39552140,-0.03558811,-0.00318680,-0.99936146
1312471251.44329095,-0.03535666,-0.00310011,-0.99936995
1312471251.49547458,-0.03531207,-0.00332639,-0.99937080
1312471251.54429436,-0.03550760,-0.00342923,-0.99936352
1312471251.59541655,-0.03501241,-0.00284721,-0.99938282
1312471251.64341640,-0.03515323,-0.00276817,-0.99937810
1312471251.69542027,-0.03527655,-0.00271279,-0.99937391
1312471251.74442554,-0.03521926,-0.00273378,-0.99937587
1312471251.79236865,-0.03527149,-0.00275714,-0.99937396
1312471251.84443188,-0.03509889,-0.00295683,-0.99937947
1312471251.89548039,-0.03505159,-0.00288980,-0.99938133
1312471251.94343877,-0.03517391,-0.00287204,-0.99937708
1312471251.99543667,-0.03510910,-0.00292343,-0.99937921
1312471252.04330587,-0.03508697,-0.00270227,-0.99938061
1312471252.09234405,-0.03464690,-0.00286663,-0.99939550
1312471252.14345074,-0.03477163,-0.00296212,-0.99939089
1312471252.19537592,-0.03476861,-0.00320015,-0.99939027
1312471252.24329019,-0.03495883,-0.00297047,-0.99938434
1312471252.29641581,-0.03508965,-0.00291531,-0.99937992
1312471252.34330106,-0.03533452,-0.00294297,-0.99937121
1312471252.39528632,-0.03549170,-0.00282559,-0.99936598
1312471252.44329858,-0.03552846,-0.00330756,-0.99936319
1312471252.49635124,-0.03536547,-0.00326313,-0.99936912
1312471252.54330993,-0.03545009,-0.00339978,-0.99936567
1312471252.59532785,-0.03495649,-0.00322158,-0.99938364
1312471252.64331913,-0.03510132,-0.00313616,-0.99937884
1312471252.69532156,-0.03516039,-0.00327477,-0.99937632
1312471252.74330544,-0.03509816,-0.00312842,-0.99937897
1312471252.79643154,-0.03497220,-0.00315762,-0.99938330
1312471252.84329629,-0.03502842,-0.00300486,-0.99938180
1312471252.89710355,-0.03493965,-0.00283492,-0.99938540
1312471252.94341516,-0.03522124,-0.00332093,-0.99937402
1312471252.99644208,-0.03518712,-0.00339307,-0.99937498
1312471253.04348016,-0.03514316,-0.00350065,-0.99937616
1312471253.09532809,-0.03484941,-0.00332789,-0.99938703
1312471253.14430737,-0.03486862,-0.00345428,-0.99938594
1312471253.19643021,-0.03477155,-0.00347187,-0.99938926
1312471253.24342275,-0.03462462,-0.00350679,-0.99939424
1312471253.29568839,-0.03462466,-0.00349829,-0.99939426
1312471253.34417868,-0.03417900,-0.00314057,-0.99941079
1312471253.39634609,-0.03415968,-0.00334685,-0.99941078
1312471253.44340658,-0.03409616,-0.00349946,-0.99941243
1312471253.49532008,-0.03411630,-0.00375733,-0.99941081
1312471253.54341125,-0.03417312,-0.00381169,-0.99940866
1312471253.59644294,-0.03400166,-0.00319901,-0.99941666
1312471253.64442992,-0.03374592,-0.00326574,-0.99942511
1312471253.69537354,-0.03384211,-0.00348287,-0.99942112
1312471253.74443722,-0.03404375,-0.00351068,-0.99941418
1312471253.79538941,-0.03412524,-0.00348211,-0.99941150
1312471253.84443784,-0.03353176,-0.00318864,-0.99943257
1312471253.89533782,-0.03363705,-0.00327481,-0.99942875
1312471253.94341350,-0.03377512,-0.00323097,-0.99942424
1312471253.99612880,-0.03386970,-0.00356567,-0.99941990
1312471254.04341316,-0.03386010,-0.00357192,-0.99942020
1312471254.09636116,-0.03303267,-0.00331245,-0.99944878
1312471254.14341426,-0.03321798,-0.00361769,-0.99944158
1312471254.19655848,-0.03326118,-0.00353918,-0.99944043
1312471254.24332380,-0.03337121,-0.00357398,-0.99943664
1312471254.29532909,-0.03334559,-0.00350147,-0.99943775
1312471254.34341407,-0.03274748,-0.00326658,-0.99945832
1312471254.39645553,-0.03304622,-0.00291998,-0.99944956
1312471254.44341302,-0.03310628,-0.00274155,-0.99944808
1312471254.49642706,-0.03322062,-0.00273708,-0.99944430
1312471254.54342532,-0.03349436,-0.00260815,-0.99943550
1312471254.59541440,-0.03344792,-0.00223284,-0.99943797
1312471254.64342999,-0.03356239,-0.00206789,-0.99943449
1312471254.69546938,-0.03346164,-0.00192285,-0.99943815
1312471254.74342942,-0.03354405,-0.00193042,-0.99943538
1312471254.79643726,-0.03369497,-0.00182226,-0.99943050
1312471254.84445262,-0.03325009,-0.00178040,-0.99944548
1312471254.89643598,-0.03305281,-0.00160950,-0.99945231
1312471254.94431019,-0.03274033,-0.00162092,-0.99946258
1312471254.99242806,-0.03287544,-0.00169133,-0.99945803
1312471255.04337287,-0.03313479,-0.00132331,-0.99945002
1312471255.09536409,-0.03218627,-0.00132564,-0.99948101
1312471255.14329410,-0.03223199,-0.00143958,-0.99947938
1312471255.19544768,-0.03219855,-0.00166251,-0.99948011
1312471255.24329400,-0.03197041,-0.00165134,-0.99948745
1312471255.29633665,-0.03188459,-0.00142909,-0.99949054
1312471255.34340191,-0.03064800,-0.00120546,-0.99952951
1312471255.39238763,-0.03071597,-0.00124685,-0.99952738
1312471255.44331074,-0.03057671,-0.00142768,-0.99953140
1312471255.49530602,-0.03071014,-0.00131856,-0.99952746
1312471255.54431462,-0.03081822,-0.00148122,-0.99952391
1312471255.59532571,-0.03032885,-0.00115395,-0.99953931
1312471255.64331841,-0.03048469,-0.00108346,-0.99953465
1312471255.69532228,-0.03047659,-0.00114031,-0.99953483
1312471255.74327874,-0.03047056,-0.00114165,-0.99953501
1312471255.79529166,-0.03067554,-0.00123739,-0.99952863
1312471255.84332871,-0.03052072,-0.00093644,-0.99953370
1312471255.89531231,-0.03045073,-0.00104996,-0.99953572
1312471255.94444180,-0.03039065,-0.00110135,-0.99953749
1312471255.99643755,-0.03046549,-0.00124598,-0.99953504
1312471256.03643513,-0.03070016,-0.00116043,-0.99952797
1312471256.09533238,-0.03036125,-0.00074137,-0.99953872
1312471256.14333558,-0.03026481,-0.00092606,-0.99954149
1312471256.19534326,-0.03036342,-0.00073564,-0.99953865
1312471256.24332714,-0.03021994,-0.00073565,-0.99954300
1312471256.29531574,-0.03000587,-0.00084325,-0.99954937
1312471256.34334683,-0.02931474,-0.00052548,-0.99957009
1312471256.39540839,-0.02910493,-0.00075561,-0.99957608
1312471256.44342184,-0.02919155,-0.00064362,-0.99957363
1312471256.49532437,-0.02928062,-0.00062738,-0.99957103
1312471256.54340887,-0.02929093,-0.00077054,-0.99957063
1312471256.59533596,-0.02888745,-0.00023355,-0.99958264
1312471256.64342690,-0.02910529,-0.00054525,-0.99957620
1312471256.69612265,-0.02900924,-0.00068667,-0.99957891
1312471256.74341583,-0.02909070,-0.00094954,-0.99957632
1312471256.79635811,-0.02926631,-0.00131641,-0.99957078
1312471256.84341264,-0.02903059,-0.00081399,-0.99957819
1312471256.89534354,-0.02901614,-0.00102003,-0.99957842
1312471256.94342589,-0.02914790,-0.00103557,-0.99957457
1312471256.99531627,-0.02893467,-0.00085817,-0.99958094
1312471257.04343486,-0.02910265,-0.00096237,-0.99957596
1312471257.09541821,-0.02898165,-0.00046191,-0.99957984
1312471257.14443445,-0.02870891,-0.00070547,-0.99958757
1312471257.19581127,-0.02877518,-0.00081707,-0.99958557
1312471257.24342442,-0.02904318,-0.00083319,-0.99957781
1312471257.29613161,-0.02935312,-0.00092084,-0.99956868
1312471257.34443426,-0.02894039,-0.00077515,-0.99958084
1312471257.39643383,-0.02894651,-0.00067867,-0.99958073
1312471257.44443464,-0.02900164,-0.00055705,-0.99957921
1312471257.49533248,-0.02886695,-0.00067521,-0.99958303
1312471257.54444337,-0.02880364,-0.00097967,-0.99958461
1312471257.59643507,-0.02844982,-0.00023283,-0.99959519
1312471257.64341760,-0.02843364,-0.00041686,-0.99959560
1312471257.69643188,-0.02845563,-0.00027011,-0.99959502
1312471257.74443507,-0.02882295,-0.00031729,-0.99958448
1312471257.79644537,-0.02891653,-0.00030371,-0.99958178
1312471257.84344268,-0.02886190,-0.00029265,-0.99958337
1312471257.89532351,-0.02894079,-0.00041380,-0.99958104
1312471257.94342804,-0.02879245,-0.00041970,-0.99958532
1312471257.99642920,-0.02885305,-0.00041371,-0.99958358
1312471258.04344153,-0.02878335,-0.00037397,-0.99958560
1312471258.09242177,-0.02843174,-0.00013421,-0.99959573
1312471258.14345098,-0.02833793,-0.00000415,-0.99959840
1312471258.19640923,-0.02834924,0.00006662,-0.99959808
1312471258.24332595,-0.02844005,0.00008634,-0.99959550
1312471258.29532623,-0.02842207,0.00037109,-0.99959594
1312471258.34342456,-0.02825646,0.00047759,-0.99960059
1312471258.39240623,-0.02826334,0.00047726,-0.99960040
1312471258.44334459,-0.02788281,0.00021621,-0.99961118
1312471258.48431706,-0.02784633,0.00024344,-0.99961219
1312471258.54443836,-0.02805352,0.00006869,-0.99960642
1312471258.58433604,-0.02791647,0.00052399,-0.99961012
1312471258.63596320,-0.02795303,0.00052908,-0.99960910
1312471258.69532895,-0.02793062,0.00015320,-0.99960985
1312471258.73639488,-0.02801637,0.00022055,-0.99960744
1312471258.78842854,-0.02800354,0.00015078,-0.99960781
1312471258.83609939,-0.02778217,0.00071337,-0.99961375
1312471258.88844657,-0.02776997,0.00084506,-0.99961398
1312471258.93532491,-0.02779674,0.00086090,-0.99961323
1312471258.98741913,-0.02799168,0.00090165,-0.99960775
1312471259.03629351,-0.02815088,0.00092145,-0.99960326
1312471259.08732486,-0.02749392,0.00126677,-0.99962117
1312471259.13532782,-0.02757770,0.00119736,-0.99961895
1312471259.18733621,-0.02774157,0.00118711,-0.99961442
1312471259.23608899,-0.02778223,0.00106603,-0.99961343
1312471259.28740430,-0.02800421,0.00095643,-0.99960735
1312471259.33530927,-0.02773334,0.00133580,-0.99961446
1312471259.38842940,-0.02738023,0.00132046,-0.99962422
1312471259.43628550,-0.02747978,0.00136529,-0.99962143
1312471259.48442602,-0.02753055,0.00133739,-0.99962007
1312471259.53541708,-0.02730912,0.00156218,-0.99962582
1312471259.58740568,-0.02757820,0.00166564,-0.99961826
1312471259.63633680,-0.02760703,0.00199160,-0.99961687
1312471259.68741322,-0.02771305,0.00203033,-0.99961386
1312471259.73641467,-0.02787182,0.00197887,-0.99960955
1312471259.78844571,-0.02786018,0.00182947,-0.99961016
1312471259.83535051,-0.02733888,0.00180186,-0.99962460
1312471259.89132667,-0.02713680,0.00170649,-0.99963027
1312471259.93547630,-0.02705823,0.00153210,-0.99963269
1312471259.98842239,-0.02694829,0.00135641,-0.99963591
1312471260.03779483,-0.02696011,0.00156761,-0.99963528
1312471260.08409309,-0.02679340,0.00154571,-0.99963980
1312471260.13930821,-0.02663419,0.00140172,-0.99964426
1312471260.18426847,-0.02667594,0.00134211,-0.99964323
1312471260.23541451,-0.02674539,0.00131140,-0.99964142
1312471260.29132843,-0.02638208,0.00145040,-0.99965088
1312471260.33668995,-0.02606489,0.00195915,-0.99965833
1312471260.38844919,-0.02598287,0.00208562,-0.99966021
1312471260.43645453,-0.02597069,0.00204589,-0.99966061
1312471260.48843765,-0.02591426,0.00208989,-0.99966198
1312471260.53546190,-0.02594401,0.00207319,-0.99966125
1312471260.58741808,-0.02613578,0.00166372,-0.99965702
1312471260.63696623,-0.02579006,0.00201335,-0.99966535
1312471260.69126844,-0.02582371,0.00196962,-0.99966457
1312471260.73644400,-0.02568361,0.00179035,-0.99966852
1312471260.78447723,-0.02593707,0.00182367,-0.99966191
1312471260.83640885,-0.02522073,0.00201681,-0.99967987
1312471260.88847399,-0.02534043,0.00199180,-0.99967690
1312471260.93541956,-0.02516013,0.00168589,-0.99968201
1312471260.98730922,-0.02497666,0.00178710,-0.99968644
1312471261.03678560,-0.02508404,0.00175690,-0.99968380
1312471261.08731246,-0.02485259,0.00181505,-0.99968948
1312471261.13639808,-0.02501813,0.00203462,-0.99968493
1312471261.18440962,-0.02523156,0.00211382,-0.99967940
1312471261.23643923,-0.02507005,0.00201955,-0.99968366
1312471261.28796816,-0.02500459,0.00209131,-0.99968515
1312471261.33586812,-0.02467903,0.00233518,-0.99969270
1312471261.38842845,-0.02468619,0.00244291,-0.99969226
1312471261.43645382,-0.02504571,0.00246953,-0.99968326
1312471261.48429251,-0.02512615,0.00248926,-0.99968119
1312471261.53643060,-0.02504446,0.00249909,-0.99968321
1312471261.58835220,-0.02515015,0.00234408,-0.99968094
1312471261.63644457,-0.02483304,0.00220046,-0.99968919
1312471261.68732858,-0.02451331,0.00219545,-0.99969709
1312471261.73630476,-0.02452847,0.00220015,-0.99969671
1312471261.78834510,-0.02433692,0.00255596,-0.99970055
1312471261.83639860,-0.02394655,0.00293333,-0.99970894
1312471261.88834286,-0.02399778,0.00301648,-0.99970746
1312471261.93651843,-0.02396000,0.00284755,-0.99970886
1312471261.98842740,-0.02387025,0.00296029,-0.99971068
1312471262.03695083,-0.02376391,0.00274094,-0.99971384
1312471262.08830738,-0.02331812,0.00297370,-0.99972367
1312471262.13543892,-0.02330418,0.00313929,-0.99972349
1312471262.18742537,-0.02328940,0.00310724,-0.99972394
1312471262.23570085,-0.02299222,0.00297187,-0.99973123
1312471262.28443050,-0.02325526,0.00315625,-0.99972458
1312471262.33642936,-0.02299517,0.00335668,-0.99972994
1312471262.38742399,-0.02314331,0.00362433,-0.99972559
1312471262.43644929,-0.02320418,0.00388447,-0.99972320
1312471262.48442554,-0.02327131,0.00385122,-0.99972177
1312471262.53667045,-0.02346975,0.00403051,-0.99971642
1312471262.58742428,-0.02384708,0.00409690,-0.99970722
1312471262.63643050,-0.02351057,0.00412453,-0.99971508
1312471262.68434906,-0.02348658,0.00387695,-0.99971663
1312471262.73645806,-0.02353120,0.00378000,-0.99971596
1312471262.78842974,-0.02357472,0.00351354,-0.99971590
1312471262.83600736,-0.02300175,0.00402696,-0.99972731
1312471262.88449001,-0.02310895,0.00386594,-0.99972548
1312471262.93534660,-0.02313702,0.00363316,-0.99972570
1312471262.98741531,-0.02313647,0.00363062,-0.99972572
1312471263.03638792,-0.02333251,0.00353696,-0.99972150
1312471263.09130406,-0.02318178,0.00401843,-0.99972319
1312471263.13653135,-0.02339558,0.00407748,-0.99971797
1312471263.18440127,-0.02319048,0.00412610,-0.99972255
1312471263.23639560,-0.02325731,0.00406079,-0.99972127
1312471263.28842378,-0.02328171,0.00408414,-0.99972060
1312471263.33682632,-0.02325637,0.00436358,-0.99972001
1312471263.38438201,-0.02296246,0.00430250,-0.99972707
1312471263.43685961,-0.02309890,0.00425601,-0.99972413
1312471263.48727536,-0.02310636,0.00419543,-0.99972421
1312471263.53632140,-0.02322082,0.00429768,-0.99972112
1312471263.58432913,-0.02343800,0.00487250,-0.99971342
1312471263.63642192,-0.02327001,0.00467297,-0.99971830
1312471263.68445134,-0.02309142,0.00450780,-0.99972319
1312471263.73532796,-0.02296314,0.00425543,-0.99972726
1312471263.78732252,-0.02281030,0.00432629,-0.99973045
1312471263.83674026,-0.02276475,0.00514220,-0.99972762
1312471263.88732123,-0.02286241,0.00520199,-0.99972509
1312471263.93630767,-0.02308221,0.00545624,-0.99971868
1312471263.98332882,-0.02329059,0.00563975,-0.99971283
1312471264.03658748,-0.02329231,0.00567750,-0.99971258
1312471264.08332181,-0.02317280,0.00496675,-0.99971914
1312471264.13587213,-0.02333595,0.00490004,-0.99971567
1312471264.18335199,-0.02319477,0.00480255,-0.99971943
1312471264.23631120,-0.02313962,0.00488048,-0.99972033
1312471264.28361726,-0.02292086,0.00492272,-0.99972516
1312471264.34343052,-0.02270757,0.00461716,-0.99973149
1312471264.38435268,-0.02269663,0.00450515,-0.99973225
1312471264.43647122,-0.02285141,0.00477706,-0.99972746
1312471264.48332953,-0.02293926,0.00460036,-0.99972628
1312471264.53632069,-0.02327789,0.00450348,-0.99971889
1312471264.59231162,-0.02355359,0.00426576,-0.99971347
1312471264.64329314,-0.02316181,0.00409836,-0.99972333
1312471264.69336772,-0.02304990,0.00421418,-0.99972543
1312471264.73534822,-0.02311740,0.00419154,-0.99972397
1312471264.78442788,-0.02343052,0.00452148,-0.99971524
1312471264.83638692,-0.02357966,0.00501614,-0.99970938
1312471264.88730550,-0.02373966,0.00491325,-0.99970610
1312471264.93535018,-0.02391157,0.00461094,-0.99970344
1312471264.99644971,-0.02376322,0.00436523,-0.99970808
1312471265.03630710,-0.02390216,0.00457865,-0.99970382
1312471265.09532499,-0.02352690,0.00471780,-0.99971207
1312471265.13639188,-0.02342183,0.00431037,-0.99971638
1312471265.19643831,-0.02325316,0.00412849,-0.99972108
1312471265.23632622,-0.02304066,0.00435256,-0.99972505
1312471265.28736830,-0.02302734,0.00449081,-0.99972475
1312471265.33631992,-0.02236219,0.00492552,-0.99973780
1312471265.39642358,-0.02214251,0.00520520,-0.99974127
1312471265.43647075,-0.02215482,0.00516884,-0.99974119
1312471265.48733258,-0.02225803,0.00526777,-0.99973838
1312471265.53645301,-0.02214266,0.00512311,-0.99974169
1312471265.58494782,-0.02218020,0.00524144,-0.99974025
1312471265.63637209,-0.02157953,0.00571995,-0.99975077
1312471265.68728542,-0.02148102,0.00569962,-0.99975301
1312471265.73632407,-0.02165218,0.00584385,-0.99974848
1312471265.78446579,-0.02159442,0.00584640,-0.99974972
1312471265.83633685,-0.02096986,0.00517335,-0.99976672
1312471265.88727760,-0.02091492,0.00518832,-0.99976780
1312471265.93643355,-0.02083677,0.00508250,-0.99976997
1312471265.98849225,-0.02074579,0.00530900,-0.99977069
1312471266.03650451,-0.02081730,0.00513577,-0.99977011
1312471266.08844876,-0.02097823,0.00564694,-0.99976399
1312471266.13535309,-0.02086244,0.00554105,-0.99976700
1312471266.18429375,-0.02093760,0.00541368,-0.99976613
1312471266.23630190,-0.02114377,0.00540298,-0.99976185
1312471266.28442097,-0.02124049,0.00522812,-0.99976073
1312471266.33530474,-0.02104457,0.00566786,-0.99976247
1312471266.38436913,-0.02105511,0.00540507,-0.99976371
1312471266.43653584,-0.02110304,0.00541525,-0.99976264
1312471266.48741937,-0.02096941,0.00541764,-0.99976544
1312471266.53541303,-0.02095993,0.00539946,-0.99976574
1312471266.58845830,-0.02099812,0.00529119,-0.99976551
1312471266.63532233,-0.02077471,0.00558160,-0.99976860
1312471266.69531155,-0.02104619,0.00556558,-0.99976301
1312471266.74331951,-0.02149161,0.00562091,-0.99975323
1312471266.78351641,-0.02146138,0.00552669,-0.99975440
1312471266.83531713,-0.02146181,0.00531454,-0.99975554
1312471266.88730049,-0.02165113,0.00522884,-0.99975191
1312471266.93637943,-0.02178849,0.00526919,-0.99974872
1312471266.98440933,-0.02200943,0.00495524,-0.99974548
1312471267.03543162,-0.02210770,0.00469734,-0.99974456
1312471267.08335781,-0.02209166,0.00483596,-0.99974425
1312471267.14444351,-0.02224214,0.00475647,-0.99974130
1312471267.19604397,-0.02217338,0.00470597,-0.99974306
1312471267.23647285,-0.02220629,0.00470792,-0.99974232
1312471267.29238892,-0.02204853,0.00474508,-0.99974564
1312471267.34328389,-0.02167329,0.00496535,-0.99975278
1312471267.39636517,-0.02189493,0.00491492,-0.99974820
1312471267.43635321,-0.02176251,0.00504450,-0.99975044
1312471267.49403667,-0.02193052,0.00500275,-0.99974698
1312471267.54336548,-0.02196371,0.00518006,-0.99974535
1312471267.59634137,-0.02222155,0.00496447,-0.99974074
1312471267.63640189,-0.02205505,0.00496836,-0.99974441
1312471267.69634843,-0.02206215,0.00513448,-0.99974342
1312471267.74335837,-0.02220435,0.00512975,-0.99974029
1312471267.79234147,-0.02225775,0.00506613,-0.99973943
1312471267.83643389,-0.02168468,0.00512461,-0.99975173
1312471267.89530993,-0.02163509,0.00526583,-0.99975207
1312471267.93631482,-0.02148266,0.00530864,-0.99975513
1312471267.99533820,-0.02142061,0.00507432,-0.99975768
1312471268.03651571,-0.02128556,0.00504752,-0.99976070
1312471268.09530210,-0.02091357,0.00497345,-0.99976892
1312471268.14680672,-0.02104330,0.00510741,-0.99976552
1312471268.19540882,-0.02087289,0.00530601,-0.99976806
1312471268.23632407,-0.02070467,0.00523957,-0.99977191
1312471268.29539323,-0.02064660,0.00530393,-0.99977277
1312471268.34331417,-0.02020625,0.00552284,-0.99978058
1312471268.39642906,-0.02011250,0.00555488,-0.99978229
1312471268.43540931,-0.02015694,0.00544699,-0.99978199
1312471268.48834395,-0.02016192,0.00531854,-0.99978258
1312471268.54443884,-0.01983496,0.00515271,-0.99978999
1312471268.59645128,-0.01932936,0.00537348,-0.99979873
1312471268.64443159,-0.01941596,0.00556104,-0.99979603
1312471268.69531512,-0.01957940,0.00545145,-0.99979344
1312471268.74443579,-0.01965763,0.00522298,-0.99979313
1312471268.79533648,-0.01988504,0.00507625,-0.99978939
1312471268.83630848,-0.02059082,0.00528105,-0.99977404
1312471268.89543104,-0.02048963,0.00523880,-0.99977634
1312471268.94446087,-0.02034690,0.00527155,-0.99977908
1312471268.99643731,-0.02022642,0.00543038,-0.99978068
1312471269.04329610,-0.02026578,0.00541868,-0.99977994
1312471269.09531999,-0.02016582,0.00539704,-0.99978208
1312471269.14330912,-0.02018416,0.00530715,-0.99978219
1312471269.19531441,-0.02018632,0.00515308,-0.99978296
1312471269.24445558,-0.02001157,0.00500903,-0.99978720
1312471269.29542279,-0.01973957,0.00494364,-0.99979293
1312471269.34331155,-0.01977455,0.00506512,-0.99979163
1312471269.39642835,-0.01977334,0.00501739,-0.99979190
1312471269.44326878,-0.01981931,0.00471187,-0.99979248
1312471269.49533701,-0.01998432,0.00476343,-0.99978895
